EGPA

Kirkwall Airport

Airport
ICAO code
EGPA
IATA Code
KOI
Summary
ICAO Region
EUR
ICAO Territory
Location

Grimsetter, Kirkwall, Orkney, Scotland

Serving
Kirkwall
Elevation
58 ft
Coordinates
58° 57' 30" N , 2° 54' 19" W
KCC
Metar
EGPA 212350Z AUTO 19009KT 9999 BKN045/// 04/01 Q0980

Description

Kirkwall Airport is the main airport serving the Orkney Islands in Scotland. It is located 2.5 nm southeast of the town of Kirkwall.

Climatology

Temperate Marine climate/Oceanic climate (Köppen climate classification Cfb). Moderately cool summer and comparatively warm winter with a temperature range of only 14°C. Prevailing south-westerly winds from the Atlantic Ocean.

Runways

Designator Length Width Surface Rops
15/33 680 18 ASP No/No
6/24 1183 46 ASP No/No
9/27 1428 46 ASP No/No

Airport map

Aerial View

Airport accidents

SKYbrary Partners:

Safety knowledge contributed by: